SCP
-0 -0 0 0 -0 -0 -0 -0 -0 0 -0 0 0 0 0 0 0 0 0 0 0 -0 0 -0 0 -0 -0 -0 -0 0 0 0 0 0 0 0 0 0
0 -0 -0 -0 0 -0 -0 0 0 0 -0 0 0 0 0 0 0 0 0 0 0 0 0 -0 -0 -0 -0 0 0 0 0 0 0 0 0 0 0 0
-0 -0 -0 -0 0 -0 0 0 0 0 0 0 0 0 0 0 0 0 0 0 0 0 0 0 -0 -0 -0 0 0 0 0 0 0 0 0 0 0 0
-0 -0 -0 0 -0 -0 0 0 0 0 0 0 0 0 0 0 0 0 0 -0 -0 0 0 0 0 0 0 0 0 0 0 0 0 0 0 0 0 0
0 0 -0 0 0 0 0 0 0 0 0 0 0 0 0 -0 -0 0 -0 -0 0 0 0 0 0 0 0 0 0 0 0 0 0 0 0 0 0 0
0 0 0 -0 -0 0 -0 0 0 0 0 0 0 0 0 0 -0 -0 0 0 0 0 0 0 0 0 0 0 0 0 0 0 0 0 0 0 0 0
0 0 0 0 -0 -0 -0 0 0 0 0 0 0 0 0 0 0 0 0 0 0 0 0 0 0 0 0 0 0 0 0 0 0 0 0 0 0 0
0 0 0 0 -0 0 0 0 0 0 0 0 0 0 0 0 0 0 0 0 0 0 0 0 0 0 0 0 0 0 0 0 0 0 0 0 0 0
0 -0 0 0 0 0 0 0 0 0 0 0 0 0 0 0 0 0 0 0 0 0 0 0 0 0 0 0 0 0 0 0 0 0 0 0 0 0
-0 -0 0 0 0 0 0 0 0 0 0 0 0 0 0 0 -0 0 0 0 0 0 0 0 0 0 0 0 0 0 0 0 0 0 0 0 0 0
0 0 0 0 0 0 0 0 0 0 0 0 0 0 0 -0 -0 -0 0 0 0 0 0 0 0 0 0 0 0 0 0 0 0 0 0 0 0 0
0 0 0 0 0 0 0 0 0 0 0 0 0 0 0 -0 0 0 0 0 0 0 0 0 0 0 0 0 0 0 0 0 0 0 0 0 0 0
0 0 0 0 0 0 0 0 0 0 0 0 0 0 0 0 0 0 0 0 0 0 0 0 0 0 0 0 0 0 0 0 0 0 0 0 0 0
-0 0 0 0 0 0 0 0 0 0 0 0 0 0 0 0 0 0 0 0 0 0 0 0 0 0 0 0 0 0 0 0 0 0 0 0 0 0
0 0 0 0 0 0 0 0 0 0 0 0 0 0 0 0 0 0 0 0 0 0 0 0 0 0 0 0 0 0 0 0 0 0 0 0 0 0
0 0 0 0 0 0 0 0 0 0 0 0 0 0 0 0 0 0 0 0 0 0 0 0 0 0 0 0 0 0 0 0 0 0 0 0 0 0
0 0 0 0 0 0 0 0 0 0 0 0 0 0 0 0 0 0 0 0 0 0 0 0 0 0 0 0 0 0 0 0 0 0 0 0 0 0
0 0 0 0 0 0 0 0 0 0 0 0 0 0 0 0 0 0 0 0 0 0 0 0 0 0 0 0 0 0 0 0 0 0 0 0 0 0
0 0 0 0 0 0 0 0 0 0 0 0 0 0 0 0 0 0 0 0 0 0 0 0 0 0 0 0 0 0 0 0 0 0 0 0 0 0
0 1 0 0 0 0 0 0 0 0 0 0 0 0 0 0 0 0 0 0 0 0 0 0 0 0 0 0 0 0 0 0 0 0 0 0 0 0
0 0 0 0 0 0 0 0 0 0 0 0 0 0 0 0 0 0 0 0 0 0 0 0 0 0 0 0 0 0 0 0 0 0 0 0 0 0
0 0 1 0 0 0 0 0 0 0 0 0 0 0 0 0 0 0 0 0 0 0 0 0 0 0 0 0 0 0 0 0 0 0 0 0 0 0
0 0 0 0 0 0 0 0 0 0 0 0 0 0 0 0 0 0 0 0 0 0 0 0 0 0 0 0 0 0 0 0 0 0 0 0 0 0
Wind_Speed_500mb
21 19 18 16 20 20 20 17 15 16 17 12 8 14 14 13 14 17 23 26 27 28 31 28 28 22 16 18 18 18 19 21 22 22 23 26 26 27
18 17 15 16 20 20 22 21 20 18 21 17 15 21 19 20 20 21 20 19 14 18 29 36 27 24 20 19 21 23 24 24 23 24 27 29 31 32
13 15 14 17 19 21 23 24 24 25 21 19 23 22 19 21 22 17 10 8 13 14 10 26 24 23 22 23 24 26 27 27 28 27 30 33 34 35
11 11 13 15 18 20 19 19 18 18 18 18 19 17 15 17 17 18 14 11 12 10 4 18 20 25 27 26 26 27 28 30 32 34 37 38 38 38
13 13 13 13 19 20 18 15 15 16 18 16 15 17 17 14 16 15 14 13 11 12 12 14 19 23 25 27 30 30 30 32 34 36 39 41 41 41
12 11 11 16 19 19 16 15 20 21 19 16 16 16 16 15 10 8 7 10 10 15 16 21 23 26 30 32 32 32 31 31 33 37 41 43 43 43
10 8 12 17 15 14 14 17 19 15 13 13 15 16 14 12 10 11 10 14 18 18 15 13 21 25 26 25 28 28 27 28 28 31 35 37 39 40
14 7 10 12 11 11 11 11 12 15 17 16 15 15 17 15 14 13 13 8 6 14 14 12 17 13 17 19 23 24 23 25 30 30 32 34 35 37
18 9 8 10 12 14 15 16 19 22 22 23 20 16 17 13 9 10 11 9 10 15 20 10 12 9 14 16 17 19 24 26 25 28 30 32 32 33
22 14 10 10 13 15 18 22 26 29 24 20 20 17 17 17 16 16 17 19 19 19 14 7 10 10 13 11 9 11 16 21 26 29 32 35 37 39
26 21 16 12 14 18 22 24 26 23 21 18 19 15 18 20 17 17 17 15 15 12 19 11 14 20 16 10 13 19 23 26 24 27 31 32 32 33
31 27 22 17 18 21 25 27 23 20 19 19 16 13 8 11 10 11 11 10 17 19 20 16 17 17 10 11 12 20 21 26 30 36 41 36 34 34
36 32 28 20 22 23 26 28 22 18 15 13 13 13 11 8 9 11 12 15 17 22 27 25 16 16 15 20 17 17 29 36 39 44 43 32 36 38
39 35 31 25 25 24 26 25 17 12 10 10 8 9 12 15 17 18 20 22 22 22 23 20 18 20 20 20 21 22 31 38 38 41 34 39 36 35
44 40 36 32 28 26 24 21 15 10 10 11 12 14 16 17 19 19 18 17 17 17 19 20 19 20 21 17 21 27 36 32 32 37 33 27 25 24
50 47 46 39 33 30 25 19 14 11 11 13 14 13 13 13 14 13 13 14 15 18 21 21 21 20 21 21 24 21 27 20 31 29 24 19 19 16
54 55 54 50 44 34 29 22 17 15 14 14 15 13 14 14 14 13 12 12 10 13 14 22 21 19 18 18 13 17 20 20 26 28 24 21 15 17
58 60 61 57 52 44 36 28 23 20 17 18 18 16 16 15 14 14 13 14 12 13 12 16 16 15 18 21 16 14 16 18 20 24 22 21 18 19
66 69 66 64 58 52 45 38 28 25 23 20 20 20 21 20 17 16 16 15 13 13 14 16 14 11 9 11 15 20 22 20 22 20 21 22 26 26
72 72 72 73 70 63 55 46 35 31 28 24 23 25 25 23 20 19 18 16 13 13 11 15 12 10 9 13 14 16 26 25 21 23 24 27 32 30
78 82 79 81 75 74 64 54 39 35 32 29 28 31 30 27 25 23 20 20 17 13 10 12 15 17 19 18 15 17 20 29 26 28 32 35 29 32
73 82 85 80 82 80 72 62 46 42 40 36 33 34 34 31 27 26 24 20 19 16 14 16 21 18 13 14 17 21 22 20 25 29 30 33 35 36
61 75 91 95 91 82 76 69 57 47 44 41 38 38 37 35 31 30 27 24 22 20 19 14 15 18 14 16 21 17 21 22 24 26 26 35 35 39
Wind_Direction_500mb
237 250 258 269 283 285 280 289 286 297 309 315 325 304 302 294 281 276 282 276 271 259 248 242 237 243 235 238 240 247 257 261 263 267 272 269 262 254
236 245 257 279 283 283 285 290 283 277 289 293 295 292 281 281 277 285 289 281 274 277 248 230 237 239 238 247 253 256 262 262 267 274 274 270 265 257
250 265 266 271 274 285 288 287 284 281 277 285 297 293 285 274 271 268 287 266 298 317 255 218 224 241 248 256 261 263 264 266 267 271 276 274 270 265
267 284 279 295 298 297 295 289 281 278 283 291 285 300 290 272 266 259 269 288 302 313 261 229 245 256 261 262 269 275 276 272 267 269 279 278 276 272
278 281 299 305 306 298 293 291 285 286 290 288 291 301 303 294 271 261 266 281 281 271 261 259 261 262 264 270 275 278 282 274 267 273 277 279 278 275
257 281 299 312 305 293 286 280 282 286 288 288 290 295 302 300 297 266 278 273 278 289 290 284 284 281 279 277 277 277 277 273 273 278 282 281 277 272
258 257 311 323 316 289 282 287 285 292 290 291 289 291 292 298 281 277 282 287 292 285 282 292 291 291 290 288 277 277 273 271 275 284 282 280 276 269
233 258 316 336 330 327 318 309 299 293 292 284 283 280 286 283 274 271 280 283 275 296 299 305 302 295 294 297 286 280 275 274 277 283 289 286 282 275
222 250 299 328 328 309 316 316 312 308 296 283 270 275 287 285 276 281 286 294 298 300 303 290 277 302 297 295 282 268 268 276 280 285 291 293 293 289
226 240 269 306 330 321 317 312 312 310 300 284 275 261 262 269 281 286 290 293 302 303 298 288 298 308 315 307 294 284 287 301 307 310 307 299 296 293
231 235 251 278 311 319 322 318 316 310 303 286 275 268 263 268 271 287 298 294 299 282 305 316 308 317 301 269 285 301 317 317 322 330 330 325 317 311
232 238 247 264 293 310 320 321 317 311 301 291 283 289 274 264 264 277 273 289 297 316 300 305 309 321 321 288 299 300 320 313 315 323 320 314 314 315
236 239 244 258 279 298 317 322 315 308 300 283 260 251 273 268 276 269 273 281 290 291 292 300 303 306 299 297 298 302 304 304 309 311 318 312 310 313
235 241 244 254 270 291 310 319 309 299 296 269 236 237 251 264 273 274 278 284 289 284 291 300 301 301 295 295 299 288 303 309 310 311 312 310 311 309
232 235 239 245 260 277 295 304 297 281 262 256 245 256 263 274 278 280 287 296 296 298 303 308 311 306 301 295 296 300 312 314 314 320 330 324 312 311
232 237 239 245 250 257 274 286 279 267 260 264 260 259 260 264 262 267 276 286 291 302 310 315 319 322 313 303 298 306 317 326 328 341 344 337 334 327
235 236 238 242 244 252 258 265 267 256 263 259 253 259 254 247 250 262 273 285 283 291 302 315 325 328 326 317 315 318 325 330 330 339 358 349 331 323
241 240 241 243 244 247 250 254 258 256 257 256 250 249 244 244 249 259 267 271 278 288 299 309 322 339 339 329 310 316 320 322 320 325 336 337 331 316
236 239 242 243 242 245 246 249 253 251 250 250 247 244 242 241 242 250 258 263 276 283 287 296 309 322 331 313 304 300 310 311 312 317 319 322 319 317
236 237 242 242 239 236 239 238 244 248 248 249 244 240 237 239 241 242 252 256 260 274 281 292 302 310 308 295 289 291 305 314 308 309 317 317 314 323
239 240 240 243 241 239 237 233 237 245 245 245 241 238 236 238 237 244 249 251 258 264 255 265 274 300 306 309 314 305 297 307 315 320 323 326 323 320
249 248 246 246 244 241 240 232 230 239 240 243 240 238 238 234 238 247 249 250 257 250 261 271 289 304 301 282 291 302 310 299 306 316 317 316 317 309
266 260 254 250 247 246 238 233 234 234 235 237 237 233 234 233 236 243 246 251 250 257 262 264 271 289 281 278 291 301 303 313 309 314 314 309 309 306
Wind_Speed_850mb
21 19 18 16 20 20 20 17 15 16 17 12 8 14 14 13 14 17 23 26 27 28 31 28 28 22 16 18 18 18 19 21 22 22 23 26 26 27
18 17 15 16 20 20 22 21 20 18 21 17 15 21 19 20 20 21 20 19 14 18 29 36 27 24 20 19 21 23 24 24 23 24 27 29 31 32
13 15 14 17 19 21 23 24 24 25 21 19 23 22 19 21 22 17 10 8 13 14 10 26 24 23 22 23 24 26 27 27 28 27 30 33 34 35
11 11 13 15 18 20 19 19 18 18 18 18 19 17 15 17 17 18 14 11 12 10 4 18 20 25 27 26 26 27 28 30 32 34 37 38 38 38
13 13 13 13 19 20 18 15 15 16 18 16 15 17 17 14 16 15 14 13 11 12 12 14 19 23 25 27 30 30 30 32 34 36 39 41 41 41
12 11 11 16 19 19 16 15 20 21 19 16 16 16 16 15 10 8 7 10 10 15 16 21 23 26 30 32 32 32 31 31 33 37 41 43 43 43
10 8 12 17 15 14 14 17 19 15 13 13 15 16 14 12 10 11 10 14 18 18 15 13 21 25 26 25 28 28 27 28 28 31 35 37 39 40
14 7 10 12 11 11 11 11 12 15 17 16 15 15 17 15 14 13 13 8 6 14 14 12 17 13 17 19 23 24 23 25 30 30 32 34 35 37
18 9 8 10 12 14 15 16 19 22 22 23 20 16 17 13 9 10 11 9 10 15 20 10 12 9 14 16 17 19 24 26 25 28 30 32 32 33
22 14 10 10 13 15 18 22 26 29 24 20 20 17 17 17 16 16 17 19 19 19 14 7 10 10 13 11 9 11 16 21 26 29 32 35 37 39
26 21 16 12 14 18 22 24 26 23 21 18 19 15 18 20 17 17 17 15 15 12 19 11 14 20 16 10 13 19 23 26 24 27 31 32 32 33
31 27 22 17 18 21 25 27 23 20 19 19 16 13 8 11 10 11 11 10 17 19 20 16 17 17 10 11 12 20 21 26 30 36 41 36 34 34
36 32 28 20 22 23 26 28 22 18 15 13 13 13 11 8 9 11 12 15 17 22 27 25 16 16 15 20 17 17 29 36 39 44 43 32 36 38
39 35 31 25 25 24 26 25 17 12 10 10 8 9 12 15 17 18 20 22 22 22 23 20 18 20 20 20 21 22 31 38 38 41 34 39 36 35
44 40 36 32 28 26 24 21 15 10 10 11 12 14 16 17 19 19 18 17 17 17 19 20 19 20 21 17 21 27 36 32 32 37 33 27 25 24
50 47 46 39 33 30 25 19 14 11 11 13 14 13 13 13 14 13 13 14 15 18 21 21 21 20 21 21 24 21 27 20 31 29 24 19 19 16
54 55 54 50 44 34 29 22 17 15 14 14 15 13 14 14 14 13 12 12 10 13 14 22 21 19 18 18 13 17 20 20 26 28 24 21 15 17
58 60 61 57 52 44 36 28 23 20 17 18 18 16 16 15 14 14 13 14 12 13 12 16 16 15 18 21 16 14 16 18 20 24 22 21 18 19
66 69 66 64 58 52 45 38 28 25 23 20 20 20 21 20 17 16 16 15 13 13 14 16 14 11 9 11 15 20 22 20 22 20 21 22 26 26
72 72 72 73 70 63 55 46 35 31 28 24 23 25 25 23 20 19 18 16 13 13 11 15 12 10 9 13 14 16 26 25 21 23 24 27 32 30
78 82 79 81 75 74 64 54 39 35 32 29 28 31 30 27 25 23 20 20 17 13 10 12 15 17 19 18 15 17 20 29 26 28 32 35 29 32
73 82 85 80 82 80 72 62 46 42 40 36 33 34 34 31 27 26 24 20 19 16 14 16 21 18 13 14 17 21 22 20 25 29 30 33 35 36
61 75 91 95 91 82 76 69 57 47 44 41 38 38 37 35 31 30 27 24 22 20 19 14 15 18 14 16 21 17 21 22 24 26 26 35 35 39
Wind_Direction_850mb
237 250 258 269 283 285 280 289 286 297 309 315 325 304 302 294 281 276 282 276 271 259 248 242 237 243 235 238 240 247 257 261 263 267 272 269 262 254
236 245 257 279 283 283 285 290 283 277 289 293 295 292 281 281 277 285 289 281 274 277 248 230 237 239 238 247 253 256 262 262 267 274 274 270 265 257
250 265 266 271 274 285 288 287 284 281 277 285 297 293 285 274 271 268 287 266 298 317 255 218 224 241 248 256 261 263 264 266 267 271 276 274 270 265
267 284 279 295 298 297 295 289 281 278 283 291 285 300 290 272 266 259 269 288 302 313 261 229 245 256 261 262 269 275 276 272 267 269 279 278 276 272
278 281 299 305 306 298 293 291 285 286 290 288 291 301 303 294 271 261 266 281 281 271 261 259 261 262 264 270 275 278 282 274 267 273 277 279 278 275
257 281 299 312 305 293 286 280 282 286 288 288 290 295 302 300 297 266 278 273 278 289 290 284 284 281 279 277 277 277 277 273 273 278 282 281 277 272
258 257 311 323 316 289 282 287 285 292 290 291 289 291 292 298 281 277 282 287 292 285 282 292 291 291 290 288 277 277 273 271 275 284 282 280 276 269
233 258 316 336 330 327 318 309 299 293 292 284 283 280 286 283 274 271 280 283 275 296 299 305 302 295 294 297 286 280 275 274 277 283 289 286 282 275
222 250 299 328 328 309 316 316 312 308 296 283 270 275 287 285 276 281 286 294 298 300 303 290 277 302 297 295 282 268 268 276 280 285 291 293 293 289
226 240 269 306 330 321 317 312 312 310 300 284 275 261 262 269 281 286 290 293 302 303 298 288 298 308 315 307 294 284 287 301 307 310 307 299 296 293
231 235 251 278 311 319 322 318 316 310 303 286 275 268 263 268 271 287 298 294 299 282 305 316 308 317 301 269 285 301 317 317 322 330 330 325 317 311
232 238 247 264 293 310 320 321 317 311 301 291 283 289 274 264 264 277 273 289 297 316 300 305 309 321 321 288 299 300 320 313 315 323 320 314 314 315
236 239 244 258 279 298 317 322 315 308 300 283 260 251 273 268 276 269 273 281 290 291 292 300 303 306 299 297 298 302 304 304 309 311 318 312 310 313
235 241 244 254 270 291 310 319 309 299 296 269 236 237 251 264 273 274 278 284 289 284 291 300 301 301 295 295 299 288 303 309 310 311 312 310 311 309
232 235 239 245 260 277 295 304 297 281 262 256 245 256 263 274 278 280 287 296 296 298 303 308 311 306 301 295 296 300 312 314 314 320 330 324 312 311
232 237 239 245 250 257 274 286 279 267 260 264 260 259 260 264 262 267 276 286 291 302 310 315 319 322 313 303 298 306 317 326 328 341 344 337 334 327
235 236 238 242 244 252 258 265 267 256 263 259 253 259 254 247 250 262 273 285 283 291 302 315 325 328 326 317 315 318 325 330 330 339 358 349 331 323
241 240 241 243 244 247 250 254 258 256 257 256 250 249 244 244 249 259 267 271 278 288 299 309 322 339 339 329 310 316 320 322 320 325 336 337 331 316
236 239 242 243 242 245 246 249 253 251 250 250 247 244 242 241 242 250 258 263 276 283 287 296 309 322 331 313 304 300 310 311 312 317 319 322 319 317
236 237 242 242 239 236 239 238 244 248 248 249 244 240 237 239 241 242 252 256 260 274 281 292 302 310 308 295 289 291 305 314 308 309 317 317 314 323
239 240 240 243 241 239 237 233 237 245 245 245 241 238 236 238 237 244 249 251 258 264 255 265 274 300 306 309 314 305 297 307 315 320 323 326 323 320
249 248 246 246 244 241 240 232 230 239 240 243 240 238 238 234 238 247 249 250 257 250 261 271 289 304 301 282 291 302 310 299 306 316 317 316 317 309
266 260 254 250 247 246 238 233 234 234 235 237 237 233 234 233 236 243 246 251 250 257 262 264 271 289 281 278 291 301 303 313 309 314 314 309 309 306